CET,Max TemperatureF,Mean TemperatureF,Min TemperatureF,Max Dew PointF,MeanDew PointF,Min DewpointF,Max Humidity, Mean Humidity, Min Humidity, Max Sea Level PressureIn, Mean Sea Level PressureIn, Min Sea Level PressureIn, Max VisibilityMiles, Mean VisibilityMiles, Min VisibilityMiles, Max Wind SpeedMPH, Mean Wind SpeedMPH, Max Gust SpeedMPH,PrecipitationIn, CloudCover, Events, WindDirDegrees
2013-11-1,51,42,32,43,37,30,93,83,67,30.21,30.13,30.01,6,6,6,6,1,,0.00,,Fog,90
2013-11-2,57,49,41,50,45,39,93,85,67,30.01,29.82,29.71,6,5,4,12,4,,0.00,7,Rain,156
2013-11-3,57,50,42,50,45,36,94,79,71,29.80,29.69,29.59,6,6,4,20,8,,0.00,7,Rain,240
2013-11-4,51,45,39,43,38,34,82,71,54,29.80,29.54,29.36,6,6,6,20,9,33,0.00,4,,171
2013-11-5,51,46,39,43,38,34,87,73,58,29.56,29.47,29.36,6,6,6,16,9,26,0.00,8,Rain,251
2013-11-6,48,42,35,43,37,30,93,77,58,29.77,29.56,29.42,6,6,4,18,7,28,0.00,8,Rain,249
2013-11-7,60,52,44,50,47,43,100,80,67,29.89,29.81,29.71,6,6,4,21,10,,0.00,7,Rain,235
2013-11-8,62,56,51,52,48,45,94,73,59,29.89,29.86,29.80,6,6,6,14,7,24,0.00,6,Rain,210
2013-11-9,53,50,44,48,45,37,94,82,71,29.92,29.86,29.77,6,6,4,13,8,,0.00,8,Rain,234
2013-11-10,51,44,37,41,37,34,93,76,54,29.92,29.74,29.65,6,6,6,10,4,,0.00,7,Rain,243
2013-11-11,44,42,39,39,36,32,93,79,66,30.48,30.28,29.98,6,6,6,10,5,,0.00,7,Rain,294
2013-11-12,46,37,28,37,32,28,100,85,57,30.48,30.36,30.24,6,4,1,5,1,,0.00,5,Fog,128
2013-11-13,42,37,32,37,34,30,93,89,81,30.42,30.34,30.24,6,4,2,13,4,,0.00,7,,281
2013-11-14,41,34,28,36,33,28,100,92,76,30.39,30.22,30.12,6,2,0,6,2,,0.00,7,Fog-Rain,88
2013-11-15,41,38,35,39,37,34,100,94,87,30.39,30.28,30.15,2,2,1,4,1,,0.00,8,Rain,264
2013-11-16,46,40,33,41,38,32,100,93,76,30.42,30.39,30.36,2,1,0,5,2,,0.00,7,Fog,123
2013-11-17,37,34,32,37,36,32,100,99,93,30.33,30.26,30.15,1,0,0,5,1,,0.00,8,Fog,112
2013-11-18,46,40,35,41,39,36,100,87,76,30.15,29.98,29.89,6,5,2,9,5,,0.00,7,Fog,123
2013-11-19,46,44,41,43,40,39,93,85,81,29.89,29.76,29.65,6,5,4,8,5,,0.00,8,,104
2013-11-20,44,42,41,43,39,36,100,84,76,29.62,29.57,29.53,6,6,6,14,7,,0.00,8,Rain,210
2013-11-21,44,42,39,41,37,34,87,82,76,29.65,29.58,29.53,6,6,6,13,6,,0.00,8,Rain,93
2013-11-22,48,40,33,41,39,34,100,86,66,29.83,29.70,29.59,6,6,0,10,5,,0.00,5,Fog,81
2013-11-23,46,40,33,41,37,32,100,90,76,29.92,29.88,29.83,6,3,0,7,2,,0.00,7,Fog,37
2013-11-24,44,40,35,41,37,28,93,83,75,29.98,29.90,29.89,6,6,4,15,6,25,0.00,8,Rain,323
2013-11-25,35,32,30,28,25,19,81,73,60,30.24,30.14,30.04,6,6,6,14,10,17,0.00,6,Snow,300
2013-11-26,33,32,30,27,26,25,86,77,70,30.42,30.32,30.24,6,6,6,13,8,,0.00,6,,304
2013-11-27,33,28,24,27,23,21,93,79,60,30.48,30.46,30.42,6,6,6,9,4,,0.00,4,,285
2013-11-28,39,34,28,34,30,21,93,87,69,30.42,30.31,30.21,6,5,1,13,3,,0.00,8,Rain,267
2013-11-29,41,38,35,34,33,30,87,81,70,30.24,30.10,29.86,6,6,6,16,13,,0.00,8,Rain,257
2013-11-30,41,38,35,36,34,32,93,82,75,30.21,29.98,29.80,6,6,6,14,11,,0.00,7,Rain,252